This demonstration page uses our WeatherBlox Daily Observations layout. Learn more.

Left ArrowRight Arrow

39.08367, -84.50855

Hourly Observations for March 5, 2020

Temp ( °F °C ) Dew Point ( °F °C ) Humidity (%) Winds ( mph kmh ) Pressure ( in mb ) Visibility ( mi km ) Precip ( " mm )
12:53 am 00:53 Clear 35 1.7 29 -1.7 78 78 N N/A 30.16 1021 10 16 N/A
1:53 am 01:53 Clear 31 -0.6 27 -2.8 85 85 NE 5 7 30.14 1021 10 16 N/A
2:53 am 02:53 Clear 30 -1.1 27 -2.8 88 88 N N/A 30.14 1021 10 16 N/A
3:53 am 03:53 Clear 28 -2.2 26 -3.3 92 92 N N/A 30.14 1021 10 16 N/A
4:53 am 04:53 Clear 28 -2.2 26 -3.3 92 92 N N/A 30.17 1022 10 16 N/A
5:53 am 05:53 Clear 28 -2.2 26 -3.3 92 92 ENE 3 6 30.16 1021 10 16 N/A
6:53 am 06:53 Clear 27 -2.8 26 -3.3 96 96 N N/A 30.16 1021 10 16 N/A
7:53 am 07:53 Sunny 30 -1.1 29 -1.7 96 96 N N/A 30.17 1022 10 16 N/A
8:53 am 08:53 Sunny 35 1.7 32 undefined 89 89 N N/A 30.16 1021 10 16 N/A
9:53 am 09:53 Sunny 42 5.6 29 -1.7 60 60 S 7 11 30.13 1020 10 16 N/A
10:53 am 10:53 Sunny 46 7.8 27 -2.8 47 47 VRB 5 7 30.13 1020 10 16 N/A
11:53 am 11:53 Sunny 51 10.6 25 -3.9 36 36 VRB 5 7 30.11 1020 10 16 N/A
12:53 pm 12:53 Sunny 54 12.2 26 -3.3 34 34 SSW 8 13 30.06 1018 10 16 N/A
1:53 pm 13:53 Sunny 57 13.9 24 -4.4 28 28 SSW 5 7 30.02 1017 10 16 N/A
2:53 pm 14:53 Sunny 58 14.4 21 -6.1 24 24 S 13 20 29.98 1015 10 16 N/A
3:53 pm 15:53 Sunny 59 15 23 -5 25 25 SSW 9 15 29.96 1015 10 16 N/A
4:53 pm 16:53 Sunny 59 15 23 -5 25 25 SSW 10 17 29.93 1014 10 16 N/A
5:53 pm 17:53 Sunny 56 13.3 21 -6.1 26 26 SW 13 20 29.92 1013 10 16 N/A
6:53 pm 18:53 Clear 49 9.4 25 -3.9 39 39 SSW 9 15 29.94 1014 10 16 N/A
7:53 pm 19:53 Clear 44 6.7 27 -2.8 51 51 N N/A 29.95 1014 10 16 N/A
8:53 pm 20:53 Cloudy 48 8.9 28 -2.2 46 46 N N/A 29.95 1014 10 16 N/A
9:53 pm 21:53 Cloudy 53 11.7 30 -1.1 41 41 VRB 7 11 29.96 1015 10 16 0.00 0.00
10:53 pm 22:53 Partly Cloudy 52 11.1 27 -2.8 38 38 NW 7 11 29.96 1015 10 16 N/A
11:53 pm 23:53 Clear 50 10 27 -2.8 41 41 NW 6 9 29.96 1015 10 16 N/A

Powered by AerisWeather